QPF
0.00 0.00 0.00 0.00 0.00 0.00 0.01 0.02 0.01 0.06 0.02 0.00 0.00 0.00 0.00 0.00 0.00 0.00 0.00 0.00 0.00 0.00 0.00 0.00 0.00 0.00 0.01 0.03 0.02 0.00 0.00 0.00 0.00 0.00 0.01 0.00 0.00 0.00 0.00 0.00 0.00 0.00 0.00
0.00 0.00 0.00 0.00 0.00 0.00 0.00 0.02 0.00 0.01 0.01 0.00 0.00 0.00 0.00 0.00 0.00 0.00 0.00 0.00 0.00 0.00 0.00 0.00 0.00 0.00 0.00 0.01 0.00 0.00 0.00 0.00 0.00 0.00 0.00 0.00 0.01 0.00 0.00 0.00 0.00 0.00 0.00
0.00 0.00 0.00 0.01 0.01 0.01 0.00 0.01 0.01 0.00 0.00 0.00 0.00 0.00 0.00 0.00 0.00 0.00 0.00 0.00 0.00 0.01 0.01 0.00 0.00 0.00 0.00 0.00 0.00 0.00 0.00 0.00 0.00 0.00 0.00 0.00 0.00 0.00 0.00 0.00 0.00 0.00 0.00
0.00 0.00 0.00 0.01 0.01 0.01 0.00 0.00 0.00 0.00 0.00 0.00 0.00 0.00 0.00 0.00 0.00 0.00 0.00 0.00 0.01 0.04 0.03 0.00 0.00 0.00 0.00 0.00 0.00 0.00 0.00 0.00 0.01 0.01 0.00 0.00 0.00 0.00 0.00 0.01 0.02 0.00 0.00
0.00 0.00 0.00 0.00 0.01 0.01 0.00 0.00 0.00 0.01 0.00 0.00 0.00 0.00 0.00 0.00 0.00 0.00 0.00 0.00 0.00 0.02 0.00 0.00 0.00 0.00 0.00 0.00 0.00 0.00 0.00 0.00 0.00 0.00 0.00 0.00 0.00 0.00 0.00 0.00 0.00 0.00 0.00
0.00 0.00 0.00 0.00 0.00 0.00 0.00 0.00 0.00 0.01 0.01 0.01 0.00 0.00 0.00 0.00 0.00 0.00 0.00 0.00 0.00 0.00 0.00 0.00 0.00 0.00 0.00 0.01 0.00 0.00 0.00 0.00 0.00 0.00 0.00 0.00 0.00 0.00 0.00 0.00 0.00 0.00 0.00
0.00 0.00 0.00 0.00 0.02 0.02 0.01 0.00 0.01 0.02 0.01 0.00 0.00 0.00 0.01 0.00 0.01 0.00 0.00 0.00 0.00 0.00 0.01 0.00 0.00 0.00 0.00 0.00 0.00 0.00 0.00 0.00 0.00 0.00 0.00 0.00 0.00 0.00 0.00 0.00 0.00 0.00 0.00
0.00 0.00 0.00 0.00 0.01 0.02 0.01 0.00 0.00 0.01 0.00 0.00 0.00 0.00 0.00 0.00 0.02 0.02 0.01 0.00 0.00 0.01 0.02 0.00 0.01 0.00 0.00 0.00 0.00 0.04 0.03 0.00 0.00 0.00 0.00 0.00 0.00 0.00 0.00 0.00 0.00 0.00 0.00
0.00 0.00 0.00 0.00 0.00 0.00 0.00 0.00 0.00 0.01 0.02 0.01 0.00 0.00 0.00 0.00 0.02 0.01 0.03 0.04 0.01 0.02 0.04 0.01 0.02 0.00 0.00 0.00 0.00 0.00 0.00 0.00 0.00 0.00 0.00 0.00 0.00 0.00 0.00 0.00 0.00 0.00 0.00
0.00 0.00 0.00 0.00 0.00 0.00 0.00 0.00 0.00 0.00 0.01 0.00 0.00 0.02 0.02 0.03 0.01 0.01 0.01 0.03 0.03 0.03 0.02 0.03 0.03 0.00 0.00 0.00 0.00 0.00 0.00 0.00 0.00 0.00 0.00 0.00 0.00 0.00 0.01 0.01 0.00 0.00 0.00
0.00 0.00 0.00 0.00 0.00 0.00 0.00 0.00 0.00 0.00 0.00 0.00 0.02 0.03 0.07 0.07 0.02 0.01 0.00 0.01 0.04 0.01 0.03 0.01 0.00 0.00 0.00 0.00 0.00 0.00 0.00 0.00 0.00 0.00 0.00 0.00 0.00 0.00 0.00 0.00 0.00 0.00 0.00
0.00 0.00 0.00 0.00 0.00 0.00 0.00 0.00 0.00 0.00 0.01 0.00 0.00 0.02 0.04 0.06 0.05 0.05 0.02 0.00 0.02 0.01 0.01 0.00 0.03 0.02 0.00 0.00 0.00 0.00 0.00 0.00 0.00 0.00 0.00 0.00 0.00 0.00 0.00 0.00 0.00 0.00 0.00
0.00 0.00 0.00 0.00 0.00 0.00 0.00 0.00 0.00 0.00 0.00 0.00 0.00 0.00 0.02 0.02 0.03 0.03 0.02 0.01 0.00 0.01 0.02 0.00 0.02 0.00 0.00 0.00 0.00 0.00 0.00 0.00 0.00 0.00 0.00 0.00 0.00 0.00 0.00 0.00 0.00 0.00 0.00
0.00 0.00 0.00 0.00 0.00 0.00 0.00 0.00 0.00 0.00 0.00 0.00 0.00 0.00 0.00 0.00 0.00 0.00 0.00 0.00 0.00 0.00 0.01 0.00 0.00 0.00 0.00 0.00 0.00 0.00 0.00 0.00 0.00 0.00 0.00 0.00 0.00 0.00 0.00 0.00 0.00 0.00 0.00
0.00 0.00 0.00 0.00 0.00 0.00 0.00 0.00 0.00 0.00 0.00 0.00 0.00 0.00 0.00 0.00 0.00 0.00 0.00 0.00 0.00 0.00 0.02 0.00 0.00 0.00 0.00 0.00 0.00 0.00 0.00 0.00 0.00 0.00 0.00 0.00 0.00 0.00 0.01 0.00 0.00 0.00 0.00
0.00 0.00 0.00 0.00 0.00 0.00 0.00 0.00 0.00 0.00 0.00 0.00 0.00 0.00 0.00 0.00 0.00 0.00 0.00 0.00 0.00 0.00 0.00 0.00 0.00 0.00 0.00 0.00 0.00 0.00 0.00 0.00 0.00 0.00 0.00 0.00 0.00 0.00 0.01 0.01 0.00 0.00 0.00
0.00 0.00 0.00 0.00 0.00 0.00 0.00 0.00 0.00 0.00 0.00 0.00 0.00 0.00 0.00 0.00 0.00 0.00 0.00 0.00 0.00 0.00 0.00 0.00 0.00 0.00 0.00 0.00 0.00 0.00 0.00 0.00 0.00 0.00 0.00 0.00 0.00 0.00 0.00 0.00 0.00 0.01 0.00
0.00 0.00 0.00 0.00 0.00 0.00 0.00 0.00 0.00 0.00 0.00 0.00 0.00 0.00 0.00 0.00 0.00 0.00 0.00 0.00 0.00 0.00 0.00 0.00 0.00 0.00 0.00 0.00 0.00 0.00 0.00 0.00 0.00 0.00 0.00 0.00 0.00 0.00 0.00 0.00 0.00 0.01 0.05
0.00 0.00 0.00 0.00 0.00 0.00 0.00 0.00 0.00 0.00 0.00 0.00 0.00 0.00 0.00 0.00 0.00 0.00 0.00 0.00 0.00 0.00 0.00 0.00 0.00 0.00 0.00 0.00 0.00 0.00 0.00 0.00 0.00 0.00 0.00 0.00 0.00 0.00 0.00 0.00 0.00 0.02 0.02
0.00 0.00 0.00 0.00 0.00 0.00 0.00 0.00 0.00 0.00 0.00 0.00 0.00 0.00 0.00 0.00 0.00 0.00 0.00 0.00 0.00 0.00 0.00 0.00 0.00 0.00 0.00 0.00 0.00 0.00 0.00 0.00 0.00 0.00 0.00 0.00 0.00 0.00 0.00 0.00 0.00 0.00 0.01
0.00 0.00 0.00 0.00 0.00 0.00 0.00 0.00 0.00 0.00 0.00 0.00 0.00 0.00 0.00 0.00 0.00 0.00 0.00 0.00 0.00 0.00 0.00 0.00 0.00 0.00 0.00 0.01 0.04 0.01 0.00 0.00 0.00 0.00 0.00 0.00 0.00 0.00 0.00 0.00 0.00 0.00 0.00
0.00 0.00 0.00 0.00 0.00 0.00 0.00 0.00 0.00 0.00 0.00 0.00 0.00 0.00 0.00 0.00 0.00 0.00 0.00 0.00 0.00 0.00 0.01 0.02 0.00 0.00 0.00 0.01 0.10 0.08 0.01 0.00 0.00 0.00 0.00 0.00 0.00 0.00 0.00 0.00 0.00 0.00 0.00
0.00 0.00 0.00 0.00 0.00 0.00 0.00 0.00 0.00 0.00 0.00 0.00 0.00 0.00 0.00 0.00 0.00 0.00 0.00 0.00 0.00 0.00 0.00 0.00 0.02 0.01 0.04 0.01 0.03 0.07 0.04 0.00 0.00 0.00 0.00 0.00 0.00 0.00 0.00 0.00 0.00 0.00 0.00
0.00 0.00 0.00 0.00 0.00 0.00 0.00 0.00 0.00 0.00 0.00 0.00 0.00 0.00 0.00 0.00 0.00 0.00 0.00 0.00 0.00 0.00 0.00 0.00 0.00 0.05 0.11 0.10 0.03 0.03 0.02 0.02 0.01 0.00 0.00 0.00 0.00 0.00 0.00 0.00 0.00 0.00 0.00
0.00 0.00 0.00 0.00 0.00 0.00 0.00 0.00 0.00 0.00 0.00 0.00 0.00 0.00 0.00 0.00 0.00 0.00 0.00 0.00 0.00 0.00 0.00 0.00 0.00 0.00 0.12 0.18 0.09 0.09 0.10 0.04 0.02 0.00 0.00 0.00 0.00 0.00 0.00 0.00 0.00 0.00 0.00
0.00 0.00 0.00 0.00 0.00 0.00 0.00 0.00 0.00 0.00 0.00 0.00 0.00 0.00 0.00 0.00 0.00 0.00 0.00 0.00 0.00 0.00 0.00 0.00 0.06 0.21 0.29 0.23 0.14 0.07 0.06 0.05 0.04 0.04 0.01 0.00 0.00 0.00 0.00 0.00 0.00 0.00 0.00
MSLP
1011.98 1012.18 1012.85 1013.00 1013.24 1013.15 1013.21 1013.38 1013.82 1014.03 1014.39 1014.75 1015.09 1015.26 1015.51 1015.68 1015.95 1016.37 1016.67 1016.80 1017.03 1017.23 1017.41 1017.63 1017.91 1018.04 1018.23 1018.38 1018.51 1018.55 1018.73 1018.78 1018.88 1019.19 1019.48 1019.61 1019.62 1019.67 1019.70 1019.89 1019.85 1019.96 1020.44
1011.62 1012.08 1012.83 1013.06 1013.26 1013.32 1013.51 1013.77 1014.01 1014.40 1014.60 1014.99 1015.37 1015.50 1015.69 1015.96 1016.34 1016.63 1016.88 1017.05 1017.24 1017.45 1017.69 1017.88 1018.06 1018.30 1018.57 1018.71 1018.84 1018.88 1018.99 1019.07 1019.08 1019.40 1019.60 1019.71 1019.89 1020.00 1020.08 1020.21 1020.11 1020.44 1020.70
1011.49 1012.05 1012.71 1013.14 1013.37 1013.63 1013.75 1014.16 1014.34 1014.49 1014.77 1015.14 1015.53 1015.79 1016.00 1016.18 1016.59 1016.78 1017.08 1017.31 1017.58 1017.70 1017.93 1018.13 1018.26 1018.48 1018.79 1019.06 1019.14 1019.19 1019.34 1019.34 1019.45 1019.70 1019.90 1019.48 1019.80 1020.25 1020.36 1020.45 1020.68 1020.89 1021.07
1011.39 1012.02 1012.43 1013.22 1013.53 1013.89 1014.05 1014.39 1014.61 1014.78 1015.14 1015.42 1015.60 1015.98 1016.21 1016.55 1016.84 1016.97 1017.20 1017.53 1017.81 1018.00 1018.15 1018.38 1018.58 1018.76 1019.02 1019.24 1019.44 1019.47 1019.55 1019.59 1019.79 1020.03 1019.75 1019.72 1019.91 1020.48 1020.53 1020.65 1020.87 1021.09 1021.25
1011.61 1012.22 1012.60 1013.20 1013.67 1013.88 1014.15 1014.59 1014.81 1015.06 1015.40 1015.60 1015.75 1016.11 1016.43 1016.77 1017.00 1017.16 1017.37 1017.64 1017.97 1018.26 1018.36 1018.52 1018.73 1018.90 1019.11 1019.42 1019.61 1019.68 1019.71 1019.83 1020.18 1020.17 1020.13 1020.12 1020.03 1020.60 1020.75 1020.93 1021.13 1021.28 1021.36
1011.53 1012.15 1012.99 1013.38 1013.77 1014.03 1014.41 1014.68 1014.91 1015.25 1015.56 1015.67 1016.02 1016.26 1016.56 1016.88 1017.07 1017.18 1017.50 1017.78 1018.06 1018.31 1018.53 1018.72 1018.86 1019.09 1019.20 1019.50 1019.78 1019.99 1019.93 1020.15 1020.34 1020.20 1020.32 1020.65 1020.29 1020.81 1020.96 1021.10 1021.25 1021.54 1021.75
1011.76 1012.15 1012.86 1013.44 1013.84 1014.25 1014.46 1014.81 1015.07 1015.46 1015.73 1015.91 1016.13 1016.33 1016.63 1016.86 1017.12 1017.37 1017.63 1017.91 1018.18 1018.36 1018.64 1018.78 1019.09 1019.16 1019.47 1019.62 1019.89 1020.11 1020.21 1020.37 1020.17 1020.30 1020.50 1020.54 1020.65 1021.14 1021.22 1021.24 1021.47 1021.74 1021.98
1011.74 1012.20 1012.69 1013.48 1013.85 1014.32 1014.72 1014.92 1015.25 1015.58 1015.85 1015.99 1016.24 1016.41 1016.72 1016.93 1017.33 1017.53 1017.72 1018.04 1018.32 1018.49 1018.72 1018.97 1019.22 1019.34 1019.61 1019.80 1020.00 1020.24 1020.36 1020.43 1020.23 1020.32 1020.60 1020.74 1021.19 1021.36 1021.43 1021.49 1021.61 1021.90 1022.08
1011.95 1012.24 1012.71 1013.13 1013.68 1014.21 1014.67 1014.99 1015.32 1015.67 1015.95 1016.13 1016.45 1016.68 1016.81 1017.05 1017.44 1017.66 1017.96 1018.28 1018.47 1018.64 1018.92 1019.18 1019.37 1019.49 1019.70 1019.95 1020.16 1020.42 1020.39 1020.49 1020.10 1020.13 1020.44 1020.63 1021.36 1021.45 1021.52 1021.58 1021.78 1021.97 1022.22
1012.15 1012.40 1012.65 1013.07 1013.33 1013.83 1014.40 1014.92 1015.26 1015.61 1015.97 1016.19 1016.45 1016.76 1016.96 1017.13 1017.47 1017.68 1018.14 1018.46 1018.59 1018.82 1019.12 1019.39 1019.55 1019.75 1019.90 1020.10 1020.23 1020.43 1020.56 1020.57 1019.99 1020.09 1020.34 1020.45 1021.29 1021.47 1021.51 1021.65 1021.89 1022.10 1022.34
1012.30 1012.38 1012.60 1013.08 1013.39 1013.76 1014.22 1014.73 1015.19 1015.52 1015.91 1016.18 1016.39 1016.66 1016.91 1017.30 1017.33 1017.65 1018.00 1018.48 1018.65 1018.96 1019.16 1019.41 1019.61 1019.87 1020.13 1020.29 1020.37 1020.49 1020.52 1020.09 1020.01 1020.03 1020.10 1020.87 1021.26 1021.41 1021.44 1021.71 1021.93 1022.11 1022.33
1011.43 1012.13 1012.42 1012.83 1013.27 1013.71 1014.06 1014.59 1014.97 1015.24 1015.55 1015.82 1016.19 1016.70 1017.07 1017.34 1017.53 1017.67 1018.04 1018.52 1018.77 1018.92 1019.20 1019.41 1019.60 1019.91 1020.20 1019.81 1020.05 1020.47 1019.94 1020.07 1020.08 1020.10 1020.16 1020.87 1021.16 1021.27 1021.38 1021.51 1021.86 1022.07 1022.25
1010.64 1011.71 1012.38 1012.74 1013.06 1013.43 1013.74 1014.34 1014.71 1015.07 1015.37 1015.75 1016.15 1016.53 1016.91 1017.34 1017.68 1017.74 1018.09 1018.29 1018.48 1018.82 1018.85 1019.17 1019.48 1019.42 1019.60 1019.91 1019.91 1019.92 1020.04 1020.10 1019.97 1020.04 1020.11 1020.83 1021.00 1021.12 1021.24 1021.40 1021.69 1021.96 1022.14
1010.29 1010.93 1011.90 1012.71 1013.02 1013.13 1013.49 1014.02 1014.40 1014.77 1015.19 1015.54 1015.86 1016.34 1016.78 1017.17 1017.46 1017.67 1017.84 1018.05 1018.49 1018.48 1018.72 1019.00 1019.08 1019.45 1019.88 1020.04 1020.05 1020.01 1020.10 1020.05 1019.96 1020.01 1020.03 1020.63 1020.78 1020.91 1021.06 1021.28 1021.56 1021.79 1021.98
1009.75 1010.52 1011.26 1012.40 1012.96 1013.28 1013.79 1013.80 1014.18 1014.53 1014.99 1015.26 1015.68 1016.13 1016.40 1016.80 1017.11 1017.46 1017.68 1017.98 1018.16 1018.53 1018.90 1019.02 1019.29 1019.62 1019.87 1019.91 1020.04 1020.09 1019.96 1020.00 1020.03 1019.95 1019.91 1020.32 1020.51 1020.63 1020.88 1021.09 1021.28 1021.54 1021.73
1009.55 1010.43 1011.35 1012.18 1012.78 1013.12 1013.75 1014.04 1014.30 1014.54 1014.73 1015.19 1015.45 1015.83 1016.44 1016.68 1017.02 1017.32 1017.51 1017.89 1018.14 1018.53 1018.72 1018.95 1019.23 1019.46 1019.59 1019.64 1019.84 1019.92 1020.00 1019.93 1019.97 1020.01 1019.75 1019.70 1020.14 1020.34 1020.62 1020.82 1020.94 1021.13 1021.29
1009.33 1010.37 1011.13 1011.90 1012.52 1013.06 1013.48 1013.96 1014.30 1014.50 1014.82 1015.00 1015.28 1015.76 1016.18 1016.56 1016.94 1017.09 1017.24 1017.57 1017.75 1018.15 1018.71 1019.11 1019.29 1019.46 1019.50 1019.67 1019.84 1019.77 1019.84 1019.87 1019.73 1019.82 1019.73 1019.51 1019.45 1020.08 1020.28 1020.45 1020.57 1020.70 1020.90
1009.40 1010.10 1011.03 1011.59 1012.11 1012.67 1013.15 1013.74 1014.05 1014.40 1014.70 1014.97 1015.16 1015.48 1015.88 1016.27 1016.59 1017.04 1017.09 1017.28 1017.57 1018.00 1018.26 1018.64 1018.92 1019.26 1019.42 1019.41 1019.48 1019.47 1019.43 1019.57 1019.50 1019.56 1019.41 1019.33 1019.28 1019.19 1019.75 1020.06 1020.25 1020.36 1020.47
1009.05 1009.78 1010.58 1011.40 1011.72 1012.21 1012.74 1013.19 1013.71 1014.22 1014.49 1014.71 1015.11 1015.48 1015.60 1015.94 1016.33 1016.64 1016.74 1016.83 1017.51 1017.65 1017.95 1018.23 1018.63 1018.95 1019.07 1019.23 1019.21 1019.23 1019.17 1019.09 1018.93 1018.85 1018.98 1019.00 1019.07 1019.15 1019.09 1019.31 1019.79 1019.99 1020.01
1008.41 1009.45 1009.71 1010.45 1011.08 1011.82 1012.45 1013.02 1013.34 1013.73 1014.11 1014.27 1014.64 1015.07 1015.35 1015.62 1016.01 1016.32 1016.41 1016.79 1017.25 1017.38 1017.64 1017.94 1018.20 1018.52 1018.63 1018.62 1018.78 1018.67 1018.77 1018.59 1018.43 1018.49 1018.53 1018.51 1018.53 1018.75 1018.89 1019.03 1019.03 1019.01 1019.43
1006.79 1008.11 1009.12 1009.04 1010.17 1011.16 1011.80 1012.09 1012.51 1012.76 1013.33 1013.69 1013.85 1014.35 1014.89 1015.21 1015.50 1015.92 1016.07 1016.39 1016.81 1017.09 1017.29 1017.71 1018.00 1018.21 1018.24 1018.59 1018.72 1018.28 1018.15 1018.22 1018.14 1018.02 1017.91 1017.98 1018.00 1018.24 1018.38 1018.57 1018.73 1018.57 1018.58
1007.38 1008.03 1008.33 1008.93 1009.22 1009.70 1010.40 1011.09 1011.67 1012.06 1012.36 1012.93 1013.31 1013.65 1014.05 1014.55 1014.88 1015.20 1015.55 1015.87 1016.24 1016.54 1017.04 1017.26 1017.55 1017.57 1017.73 1018.04 1018.13 1018.19 1017.49 1017.06 1017.16 1017.30 1017.41 1017.60 1017.64 1017.58 1017.70 1017.91 1018.02 1018.13 1018.20
1007.05 1007.40 1007.36 1008.01 1008.48 1008.45 1009.04 1010.29 1011.09 1011.83 1012.12 1012.42 1012.69 1013.10 1013.27 1013.66 1014.16 1014.62 1014.86 1015.20 1015.72 1016.16 1016.25 1016.69 1017.11 1017.22 1017.01 1017.36 1017.78 1017.84 1017.54 1016.50 1016.14 1016.24 1016.73 1016.72 1016.89 1017.02 1016.93 1017.10 1017.27 1017.44 1017.60
1006.79 1006.70 1007.13 1007.62 1007.94 1008.24 1008.65 1008.97 1009.47 1009.68 1010.25 1010.52 1010.94 1011.89 1012.49 1012.81 1013.18 1013.75 1014.23 1014.69 1015.11 1015.42 1015.64 1015.97 1016.41 1016.69 1016.83 1016.89 1017.46 1017.44 1017.31 1017.22 1016.51 1016.04 1016.22 1016.33 1016.63 1016.75 1016.69 1016.52 1016.55 1016.79 1016.90
1006.77 1006.93 1006.67 1006.81 1007.16 1007.57 1007.78 1008.01 1008.60 1008.87 1009.05 1009.69 1010.23 1010.71 1011.37 1012.03 1012.34 1012.60 1013.16 1013.71 1014.39 1014.77 1015.12 1015.48 1015.86 1016.22 1016.36 1016.61 1016.74 1016.88 1016.96 1016.86 1016.95 1016.68 1015.93 1015.88 1016.26 1016.24 1016.15 1016.11 1015.98 1016.02 1016.07
1006.95 1006.78 1006.84 1006.79 1006.83 1006.79 1007.15 1007.53 1007.65 1007.92 1008.31 1008.64 1009.15 1009.50 1009.97 1010.50 1011.39 1012.09 1012.29 1012.68 1013.18 1013.81 1014.31 1014.75 1015.25 1015.72 1016.07 1016.52 1016.70 1016.97 1016.71 1016.31 1016.22 1016.55 1016.32 1015.94 1015.80 1015.49 1015.46 1015.46 1015.44 1015.20 1015.19
Thickness
5762 5760 5756 5755 5755 5757 5760 5761 5759 5760 5760 5760 5759 5761 5762 5764 5764 5761 5761 5763 5763 5763 5762 5762 5760 5761 5761 5760 5761 5765 5764 5765 5766 5762 5760 5759 5760 5760 5759 5756 5755 5752 5748
5768 5762 5755 5753 5753 5756 5756 5757 5758 5758 5758 5758 5757 5760 5761 5762 5760 5759 5760 5761 5762 5762 5761 5761 5761 5761 5760 5760 5761 5763 5763 5765 5765 5763 5762 5761 5761 5759 5758 5756 5756 5752 5748
5770 5764 5756 5752 5751 5753 5754 5753 5754 5756 5757 5757 5757 5758 5759 5760 5758 5759 5759 5760 5759 5760 5760 5759 5760 5760 5760 5760 5760 5763 5762 5764 5764 5763 5761 5765 5763 5760 5758 5757 5754 5751 5749
5772 5766 5760 5752 5749 5748 5749 5750 5750 5753 5753 5754 5756 5756 5757 5758 5756 5758 5759 5759 5759 5759 5758 5759 5759 5759 5760 5761 5759 5762 5763 5764 5763 5762 5763 5765 5764 5760 5760 5758 5755 5753 5750
5772 5766 5761 5754 5749 5748 5748 5747 5749 5751 5751 5752 5754 5754 5755 5755 5756 5758 5758 5759 5758 5758 5759 5759 5760 5761 5761 5760 5760 5761 5763 5765 5762 5762 5763 5763 5764 5761 5761 5758 5756 5753 5751
5774 5767 5760 5755 5750 5746 5744 5745 5747 5748 5749 5751 5751 5753 5756 5756 5757 5758 5759 5759 5758 5759 5758 5759 5760 5761 5763 5760 5760 5760 5763 5763 5763 5763 5763 5761 5764 5761 5761 5759 5756 5753 5750
5772 5769 5763 5758 5752 5747 5743 5745 5745 5746 5749 5751 5752 5754 5756 5758 5758 5758 5759 5758 5758 5759 5759 5760 5759 5762 5760 5761 5760 5760 5762 5763 5764 5764 5763 5763 5762 5760 5760 5760 5757 5754 5751
5772 5769 5766 5760 5756 5751 5746 5746 5747 5747 5748 5751 5752 5754 5754 5757 5755 5757 5758 5757 5757 5758 5759 5760 5759 5761 5761 5760 5760 5760 5761 5763 5764 5765 5764 5762 5760 5758 5758 5759 5758 5755 5752
5767 5767 5765 5764 5760 5756 5753 5750 5749 5748 5749 5750 5750 5751 5754 5755 5755 5756 5756 5755 5756 5756 5758 5758 5759 5761 5761 5760 5760 5760 5761 5762 5765 5767 5766 5764 5760 5758 5757 5758 5757 5756 5753
5766 5765 5766 5764 5765 5761 5758 5754 5753 5752 5750 5750 5751 5752 5754 5756 5754 5755 5754 5754 5754 5755 5756 5757 5757 5758 5759 5760 5760 5760 5760 5762 5766 5767 5766 5766 5761 5758 5757 5757 5757 5756 5753
5766 5767 5767 5764 5765 5763 5761 5758 5755 5755 5753 5752 5753 5754 5754 5754 5756 5756 5754 5753 5753 5753 5755 5755 5756 5756 5756 5757 5758 5759 5760 5764 5766 5766 5767 5764 5762 5759 5757 5756 5756 5755 5754
5776 5770 5772 5769 5766 5764 5763 5760 5758 5758 5757 5757 5756 5754 5753 5753 5754 5754 5754 5752 5752 5753 5753 5754 5754 5755 5755 5760 5760 5758 5763 5764 5765 5765 5765 5763 5762 5761 5759 5757 5755 5755 5754
5791 5780 5774 5773 5769 5767 5766 5762 5761 5759 5759 5759 5757 5756 5754 5751 5752 5753 5752 5753 5753 5753 5754 5754 5754 5756 5758 5759 5761 5762 5762 5763 5765 5766 5765 5762 5762 5762 5761 5759 5756 5755 5754
5798 5791 5783 5775 5773 5771 5769 5766 5764 5763 5761 5760 5760 5758 5755 5754 5753 5754 5754 5755 5753 5754 5754 5754 5756 5755 5754 5756 5758 5760 5761 5763 5765 5766 5766 5763 5763 5762 5761 5760 5757 5755 5754
5804 5798 5793 5782 5776 5772 5767 5768 5766 5764 5762 5761 5759 5758 5758 5756 5756 5754 5754 5754 5754 5753 5753 5754 5753 5753 5753 5755 5757 5758 5761 5762 5763 5764 5766 5764 5764 5763 5762 5761 5759 5757 5756
5807 5800 5794 5787 5781 5775 5770 5768 5767 5765 5764 5761 5760 5759 5756 5755 5754 5753 5754 5753 5753 5752 5753 5754 5753 5753 5754 5755 5755 5756 5758 5760 5761 5762 5765 5766 5765 5764 5762 5761 5760 5759 5758
5808 5801 5795 5789 5785 5779 5774 5769 5766 5765 5762 5761 5760 5758 5757 5754 5752 5753 5754 5753 5755 5754 5752 5751 5752 5752 5753 5753 5753 5755 5756 5758 5761 5762 5763 5766 5766 5764 5763 5763 5762 5761 5760
5808 5802 5797 5793 5788 5784 5778 5772 5767 5763 5762 5760 5759 5756 5755 5754 5753 5751 5752 5753 5754 5752 5752 5751 5752 5751 5752 5753 5753 5755 5757 5758 5760 5762 5764 5765 5766 5767 5764 5763 5763 5761 5761
5808 5805 5798 5793 5791 5787 5783 5777 5771 5765 5762 5760 5756 5753 5753 5752 5750 5750 5752 5755 5751 5752 5751 5752 5751 5750 5750 5751 5753 5755 5757 5760 5762 5764 5764 5766 5766 5765 5766 5765 5763 5763 5763
5808 5803 5807 5801 5796 5790 5785 5779 5776 5772 5766 5764 5760 5755 5754 5750 5749 5750 5751 5752 5750 5751 5751 5751 5751 5752 5752 5753 5754 5757 5758 5760 5762 5764 5764 5766 5767 5766 5765 5765 5765 5766 5764
5826 5812 5806 5809 5802 5793 5787 5782 5780 5777 5773 5769 5766 5761 5757 5755 5752 5751 5751 5751 5750 5750 5751 5750 5748 5747 5749 5751 5749 5754 5758 5760 5762 5765 5766 5766 5767 5766 5765 5764 5764 5765 5765
5813 5810 5809 5804 5804 5802 5796 5791 5786 5783 5782 5776 5771 5767 5763 5759 5757 5755 5754 5752 5752 5750 5748 5748 5747 5748 5749 5751 5746 5746 5749 5760 5764 5766 5766 5766 5766 5767 5767 5765 5765 5764 5764
5810 5810 5810 5806 5804 5807 5803 5794 5788 5782 5781 5777 5774 5771 5770 5766 5762 5759 5756 5754 5752 5750 5750 5749 5747 5746 5747 5749 5748 5745 5739 5748 5759 5766 5764 5767 5767 5766 5767 5766 5766 5765 5764
5807 5813 5811 5806 5805 5806 5803 5799 5794 5792 5786 5788 5786 5780 5776 5773 5769 5764 5760 5756 5753 5752 5752 5750 5749 5747 5746 5743 5744 5747 5749 5748 5746 5747 5760 5763 5763 5762 5764 5766 5766 5765 5764
5798 5801 5808 5807 5806 5805 5805 5804 5798 5794 5796 5792 5790 5787 5783 5779 5776 5774 5769 5763 5758 5756 5754 5751 5749 5746 5747 5743 5742 5743 5743 5747 5747 5745 5747 5754 5757 5760 5763 5763 5764 5764 5763
5789 5792 5794 5797 5800 5803 5802 5801 5801 5799 5796 5795 5792 5792 5791 5789 5782 5777 5775 5772 5767 5763 5758 5754 5750 5746 5743 5739 5738 5737 5739 5741 5742 5740 5742 5748 5750 5758 5763 5765 5765 5765 5765